EA2RCU-15 Weather Reports


time (UTC)temp
C
wind
direction
speed
KPH
gust
KPH
rain 1hr
cm
rain 24hr
cm
rain mn
cm
humidity
%
barometer
mb
20260506164505 25 334 0.0 0.0 0.00 0.20 0.10 36 996.0
20260506164005 22 334 0.0 0.0 0.00 0.20 0.10 52 996.0
20260506163505 18 334 0.0 0.0 0.00 0.20 0.10 60 996.0
20260506163005 17 334 0.0 0.0 0.00 0.20 0.10 64 996.0
20260506162505 17 334 0.0 0.0 0.00 0.20 0.10 67 996.0
20260506162005 16 334 0.0 0.0 0.00 0.20 0.10 68 996.0
20260506161505 16 333 0.0 0.0 0.00 0.20 0.10 67 996.0
20260506161005 16 334 0.0 0.0 0.00 0.20 0.10 67 996.0
20260506160505 15 333 0.0 0.0 0.00 0.20 0.10 67 996.0
20260506160005 15 333 0.0 0.0 0.00 0.20 0.10 67 996.0
20260506155505 15 333 0.0 0.0 0.00 0.41 0.10 66 996.0
20260506155005 15 333 0.0 0.0 0.00 0.51 0.10 65 996.0
20260506154505 16 333 0.0 0.0 0.00 0.51 0.10 65 996.0
20260506154005 16 333 0.0 0.0 0.00 0.51 0.10 63 996.0
20260506153505 16 333 0.0 0.0 0.00 0.51 0.10 62 996.0
20260506153005 16 333 0.0 0.0 0.00 0.51 0.10 62 996.0
20260506152504 17 334 0.0 0.0 0.00 0.51 0.10 60 997.0
20260506152004 17 333 0.0 0.0 0.00 0.51 0.10 61 997.0
20260506151505 17 333 0.0 0.0 0.00 0.51 0.10 60 997.0
20260506151005 17 334 0.0 0.0 0.00 0.51 0.10 60 997.0
20260506150505 16 333 0.0 0.0 0.00 0.51 0.10 63 997.0
20260506150005 16 334 0.0 0.0 0.00 0.51 0.10 64 997.0
20260506145504 16 333 0.0 0.0 0.00 0.51 0.10 64 997.0
20260506145005 15 334 0.0 0.0 0.00 0.51 0.10 65 997.0
20260506144505 15 334 0.0 0.0 0.00 0.51 0.10 64 997.0
20260506144005 15 333 0.0 4.8 0.00 0.51 0.10 64 997.0
20260506143504 15 333 1.6 4.8 0.10 0.51 0.10 61 997.0
20260506143005 16 333 0.0 0.0 0.10 0.51 0.10 62 997.0
20260506142504 16 333 0.0 0.0 0.10 0.51 0.10 63 997.0
20260506142005 16 334 0.0 0.0 0.10 0.51 0.10 64 997.0
20260506141505 15 334 0.0 0.0 0.10 0.51 0.10 63 997.0
20260506141005 15 333 0.0 3.2 0.10 0.51 0.10 64 997.0
20260506140504 15 343 0.0 3.2 0.10 0.51 0.10 64 997.0
20260506140005 15 306 0.0 3.2 0.10 0.51 0.10 64 997.0
20260506135505 15 333 0.0 3.2 0.10 0.61 0.10 67 997.0
20260506135005 15 353 0.0 4.8 0.10 0.61 0.10 68 997.0
20260506134505 15 31 0.0 3.2 0.10 0.61 0.10 68 997.0
20260506134005 15 358 0.0 3.2 0.10 0.61 0.10 67 997.0
20260506133505 15 283 1.6 8.0 0.00 0.51 0.00 65 997.0
20260506133004 15 344 0.0 8.0 0.00 0.51 0.00 59 997.0
20260506132505 16 23 3.2 8.0 0.00 0.51 0.00 52 997.0
20260506132005 16 84 0.0 4.8 0.00 0.51 0.00 47 997.0
20260506131505 16 20 0.0 3.2 0.00 0.51 0.00 46 997.0
20260506131005 16 333 0.0 0.0 0.00 0.61 0.00 48 996.0
20260506130505 16 349 0.0 0.0 0.00 0.61 0.00 48 996.0
20260506130005 16 316 0.0 3.2 0.00 0.61 0.00 49 996.0
20260506125504 16 311 0.0 4.8 0.00 0.61 0.00 48 1044.0
20260506125005 15 50 0.0 4.8 0.00 0.61 0.00 48 1044.0
20260506124505 15 59 0.0 4.8 0.00 0.61 0.00 47 1044.0
20260506124005 16 0 0.0 9.7 0.00 0.61 0.00 46 996.0
20260506123505 16 305 0.0 8.0 0.00 0.61 0.00 45 996.0
20260506123005 16 40 0.0 8.0 0.00 0.61 0.00 45 996.0
20260506122505 16 359 3.2 4.8 0.00 0.61 0.00 45 996.0
20260506122004 16 329 0.0 4.8 0.00 0.61 0.00 44 996.0
20260506121505 17 356 0.0 4.8 0.00 0.61 0.00 42 996.0
20260506121005 17 12 1.6 4.8 0.00 0.61 0.00 40 997.0
20260506120504 17 43 0.0 4.8 0.00 0.61 0.00 40 997.0
20260506120005 17 27 3.2 4.8 0.00 0.61 0.00 41 997.0
20260506115505 17 90 0.0 3.2 0.00 0.61 0.00 44 997.0
20260506115005 17 323 0.0 4.8 0.00 0.61 0.00 45 997.0
20260506114505 16 342 0.0 4.8 0.00 0.61 0.00 47 997.0
20260506114005 16 97 0.0 4.8 0.00 0.61 0.00 49 997.0
20260506113505 16 87 0.0 4.8 0.00 0.71 0.00 49 997.0
20260506113005 16 65 0.0 4.8 0.00 0.71 0.00 49 997.0
20260506112504 16 319 0.0 3.2 0.00 0.71 0.00 47 997.0
20260506112005 16 68 0.0 3.2 0.00 0.71 0.00 47 997.0
20260506111505 16 107 1.6 9.7 0.00 0.71 0.00 45 997.0
20260506111005 16 66 0.0 4.8 0.00 0.71 0.00 44 997.0
20260506110505 16 51 0.0 0.0 0.00 0.79 0.00 44 997.0
20260506110004 16 22 0.0 4.8 0.00 0.79 0.00 43 997.0
20260506105505 16 307 1.6 9.7 0.00 0.79 0.00 41 997.0
20260506105005 17 50 1.6 11.3 0.00 0.79 0.00 39 997.0
20260506104505 17 93 3.2 4.8 0.00 0.79 0.00 37 997.0
20260506104005 17 117 3.2 4.8 0.00 0.79 0.00 39 997.0
20260506103504 17 88 0.0 4.8 0.00 0.79 0.00 41 997.0
20260506103005 16 351 0.0 4.8 0.00 0.79 0.00 42 997.0
20260506102504 16 299 0.0 4.8 0.00 0.79 0.00 43 997.0
20260506102005 16 348 0.0 4.8 0.00 0.79 0.00 44 997.0
20260506101505 16 7 1.6 9.7 0.00 0.79 0.00 44 997.0
20260506101005 16 315 1.6 9.7 0.00 0.79 0.00 44 997.0
20260506100504 16 64 0.0 3.2 0.00 0.79 0.00 46 997.0
20260506100005 16 319 0.0 0.0 0.00 0.79 0.00 49 997.0
20260506095505 16 319 0.0 0.0 0.00 0.79 0.00 50 997.0
20260506095005 15 320 0.0 4.8 0.00 0.79 0.00 51 997.0
20260506094505 15 317 0.0 4.8 0.00 0.79 0.00 50 997.0
20260506094005 15 320 0.0 0.0 0.00 0.79 0.00 49 997.0
20260506093504 15 25 0.0 0.0 0.00 0.79 0.00 51 997.0
20260506093005 15 305 0.0 0.0 0.00 0.79 0.00 51 997.0
20260506092505 15 306 0.0 0.0 0.00 0.79 0.00 50 997.0
20260506092005 15 307 0.0 0.0 0.00 0.79 0.00 49 997.0
20260506091505 16 306 0.0 0.0 0.00 0.79 0.00 49 997.0
20260506091005 16 306 0.0 0.0 0.00 0.79 0.00 48 997.0
20260506090504 16 307 0.0 0.0 0.00 0.79 0.00 47 997.0
20260506090004 16 306 0.0 0.0 0.00 0.79 0.00 47 997.0
20260506085505 16 306 0.0 0.0 0.00 0.79 0.00 47 997.0
20260506085005 16 306 0.0 0.0 0.00 0.79 0.00 50 997.0
20260506084505 16 306 0.0 0.0 0.00 0.79 0.00 52 997.0
20260506084005 16 306 0.0 0.0 0.00 0.79 0.00 58 997.0
20260506083505 16 306 0.0 0.0 0.00 0.79 0.00 62 997.0
20260506083005 16 306 0.0 0.0 0.00 0.79 0.00 64 997.0
20260506082505 15 306 0.0 0.0 0.00 0.79 0.00 65 997.0
20260506082005 14 306 0.0 0.0 0.00 0.79 0.00 67 997.0
20260506081505 14 306 0.0 0.0 0.00 0.79 0.00 69 997.0
20260506081005 13 306 0.0 0.0 0.00 0.79 0.00 71 997.0
20260506080505 13 306 0.0 0.0 0.00 0.79 0.00 72 997.0
20260506073505 13 306 0.0 0.0 0.00 0.79 0.00 76 998.0
20260506073005 13 306 0.0 0.0 0.00 0.79 0.00 79 997.0
20260506072505 13 306 0.0 0.0 0.00 0.79 0.00 80 997.0
20260506072005 12 306 0.0 0.0 0.00 0.79 0.00 81 997.0
20260506071504 11 306 0.0 0.0 0.00 0.79 0.00 81 997.0
20260506071004 11 306 0.0 0.0 0.00 0.79 0.00 82 997.0
20260506070505 11 306 0.0 0.0 0.00 0.79 0.00 82 997.0
20260506062505 10 306 0.0 0.0 0.00 0.79 0.00 85 997.0
20260506062005 10 306 0.0 0.0 0.00 0.79 0.00 85 997.0
20260506061505 10 306 0.0 0.0 0.00 0.79 0.00 85 997.0
20260506061005 10 306 0.0 0.0 0.00 0.79 0.00 85 997.0
20260506060504 10 306 0.0 0.0 0.00 0.79 0.00 85 997.0
20260506051005 10 306 0.0 0.0 0.00 0.79 0.00 85 997.0
20260506050504 10 306 0.0 0.0 0.00 0.79 0.00 85 997.0
20260506045005 10 306 0.0 0.0 0.00 0.79 0.00 85 997.0
20260506044505 10 306 0.0 0.0 0.00 0.79 0.00 85 997.0
20260506044004 10 306 0.0 0.0 0.00 0.79 0.00 85 997.0
20260506043505 10 306 0.0 0.0 0.00 0.79 0.00 85 997.0
20260506043005 10 306 0.0 0.0 0.00 0.79 0.00 85 997.0
20260506042505 10 306 0.0 0.0 0.00 0.79 0.00 85 997.0
20260506042005 10 306 0.0 0.0 0.00 0.79 0.00 85 997.0
20260506041505 10 306 0.0 0.0 0.00 0.79 0.00 85 997.0
20260506041004 10 306 0.0 0.0 0.00 0.79 0.00 85 1041.0
20260506040505 10 305 0.0 0.0 0.00 0.79 0.00 85 1041.0
20260506040005 10 306 0.0 0.0 0.00 0.79 0.00 84 1041.0
20260506035505 10 306 0.0 0.0 0.00 0.79 0.00 84 997.0
20260506035005 11 306 0.0 0.0 0.00 0.79 0.00 84 997.0
20260506034505 11 306 0.0 0.0 0.00 0.79 0.00 85 997.0
20260506034005 11 307 0.0 0.0 0.00 0.79 0.00 85 997.0
20260506033505 11 306 0.0 0.0 0.00 0.79 0.00 85 997.0
20260506033005 10 307 0.0 0.0 0.00 0.79 0.00 84 997.0
20260506032504 10 306 0.0 0.0 0.00 0.79 0.00 84 996.0
20260506032005 10 305 0.0 0.0 0.00 0.79 0.00 83 996.0
20260506031504 11 306 0.0 0.0 0.00 0.79 0.00 84 996.0
20260506031005 11 306 0.0 0.0 0.00 0.79 0.00 84 997.0
20260506030505 11 306 0.0 0.0 0.00 0.79 0.00 84 997.0
20260506030005 11 306 0.0 0.0 0.00 0.79 0.00 84 997.0
20260506025505 11 305 0.0 0.0 0.00 0.79 0.00 84 997.0
20260506025004 11 306 0.0 0.0 0.00 0.79 0.00 84 997.0
20260506024505 11 307 0.0 0.0 0.00 0.79 0.00 84 997.0
20260506024005 11 306 0.0 0.0 0.00 0.79 0.00 84 997.0
20260506023504 11 305 0.0 0.0 0.00 0.79 0.00 83 997.0
20260506023004 11 306 0.0 0.0 0.00 0.79 0.00 83 997.0
20260506022505 11 306 0.0 0.0 0.00 0.79 0.00 83 997.0
20260506022005 11 306 0.0 0.0 0.00 0.79 0.00 83 997.0
20260506021505 11 305 0.0 0.0 0.00 0.79 0.00 83 997.0
20260506021005 11 306 0.0 0.0 0.00 0.79 0.00 83 997.0
20260506020505 11 306 0.0 0.0 0.00 0.79 0.00 83 997.0
20260506020005 11 306 0.0 0.0 0.00 0.79 0.00 83 997.0
20260506015505 11 306 0.0 0.0 0.00 0.79 0.00 83 997.0
20260506015005 11 306 0.0 0.0 0.00 0.79 0.00 83 997.0
20260506014505 11 306 0.0 0.0 0.00 0.79 0.00 82 997.0
20260506014005 11 306 0.0 0.0 0.00 0.79 0.00 82 997.0
20260506013505 11 306 0.0 0.0 0.00 0.79 0.00 83 997.0
20260506013005 11 306 0.0 0.0 0.00 0.79 0.00 83 997.0
20260506012504 11 306 0.0 0.0 0.00 0.79 0.00 83 997.0
20260506012005 11 306 0.0 0.0 0.00 0.79 0.00 83 997.0
20260506011505 11 306 0.0 0.0 0.00 0.79 0.00 83 997.0
20260506011005 11 306 0.0 0.0 0.00 0.79 0.00 83 997.0
20260506010505 11 306 0.0 0.0 0.00 0.79 0.00 83 997.0
20260506010005 11 306 0.0 0.0 0.00 0.79 0.00 83 997.0
20260506005505 11 306 0.0 0.0 0.00 0.79 0.00 83 1042.0
20260506005005 11 306 0.0 0.0 0.00 0.79 0.00 84 1042.0
20260506004505 11 306 0.0 0.0 0.00 0.79 0.00 84 1042.0
20260506004005 11 307 0.0 0.0 0.00 0.79 0.00 84 998.0
20260506003505 11 307 0.0 0.0 0.00 0.79 0.00 84 998.0
20260506003005 11 306 0.0 0.0 0.00 0.79 0.00 84 998.0
20260506002505 11 306 0.0 0.0 0.00 0.79 0.00 85 998.0
20260506002005 11 306 0.0 0.0 0.00 0.79 0.00 85 998.0
20260506001505 11 306 0.0 0.0 0.00 0.79 0.00 85 998.0
20260506001004 11 306 0.0 0.0 0.00 0.79 0.00 85 998.0
20260506000504 11 306 0.0 0.0 0.00 0.79 0.00 85 998.0
20260506000005 11 306 0.0 0.0 0.00 0.79 0.00 85 998.0
20260505235505 11 306 0.0 0.0 0.00 0.79 0.00 84 997.0
20260505235005 11 306 0.0 0.0 0.00 0.79 0.00 84 997.0
20260505234504 11 306 0.0 0.0 0.00 0.79 0.00 84 997.0
20260505234005 11 306 0.0 0.0 0.00 0.79 0.00 84 998.0
20260505233504 11 306 0.0 0.0 0.00 0.79 0.00 84 998.0
20260505233004 11 306 0.0 0.0 0.00 0.79 0.00 85 998.0
20260505232505 11 306 0.0 0.0 0.00 0.79 0.00 85 997.0
20260505232005 11 306 0.0 0.0 0.00 0.79 0.00 85 997.0
20260505231505 11 306 0.0 0.0 0.00 0.89 0.00 85 997.0
20260505231005 11 306 0.0 0.0 0.00 0.89 0.00 85 998.0
20260505230505 11 306 0.0 0.0 0.00 0.89 0.00 85 998.0
20260505230004 11 306 0.0 0.0 0.00 0.89 0.00 85 998.0
20260505225504 11 306 0.0 0.0 0.00 0.89 0.00 85 998.0
20260505225004 11 306 0.0 0.0 0.00 0.89 0.00 85 998.0
20260505224504 11 306 0.0 0.0 0.00 0.89 0.00 85 998.0
20260505224005 11 307 0.0 0.0 0.00 0.89 0.00 85 1042.0
20260505223504 11 306 0.0 0.0 0.00 0.89 0.00 85 1042.0
20260505223004 11 306 0.0 0.0 0.00 0.89 0.00 85 1042.0
20260505222504 11 306 0.0 0.0 0.00 0.89 0.00 85 998.0
20260505222004 11 306 0.0 0.0 0.00 0.89 0.00 85 998.0
20260505221504 11 306 0.0 0.0 0.00 0.89 0.00 85 998.0
20260505221005 11 306 0.0 0.0 0.00 0.89 0.00 85 998.0
20260505220504 11 306 0.0 0.0 0.00 0.89 0.00 86 998.0
20260505220004 11 306 0.0 0.0 0.00 0.89 0.00 86 998.0
20260505215504 10 306 0.0 0.0 0.00 0.89 0.89 86 998.0
20260505215004 10 306 0.0 0.0 0.00 0.89 0.89 85 998.0
20260505214504 11 306 0.0 0.0 0.00 0.89 0.89 85 998.0
20260505214004 11 307 0.0 0.0 0.00 0.89 0.89 85 998.0
20260505213504 11 306 0.0 0.0 0.00 0.89 0.89 85 998.0
20260505213004 11 305 0.0 0.0 0.00 0.89 0.89 85 998.0
20260505212504 11 305 0.0 0.0 0.00 0.89 0.89 85 998.0
20260505212004 11 305 0.0 0.0 0.00 0.89 0.89 85 998.0
20260505211504 11 306 0.0 0.0 0.00 0.89 0.89 85 998.0
20260505211004 11 306 0.0 0.0 0.00 0.89 0.89 85 998.0
20260505210504 11 306 0.0 0.0 0.00 0.89 0.89 85 998.0
20260505210004 11 306 0.0 0.0 0.00 0.89 0.89 85 998.0
20260505205504 11 306 0.0 0.0 0.00 0.89 0.89 85 998.0
20260505205005 11 306 0.0 0.0 0.00 0.89 0.89 85 998.0
20260505204504 11 307 0.0 0.0 0.00 0.89 0.89 85 998.0
20260505204004 11 306 0.0 0.0 0.00 0.89 0.89 85 997.0
20260505203504 11 306 0.0 0.0 0.00 0.89 0.89 84 997.0
20260505203004 12 306 0.0 0.0 0.00 0.89 0.89 84 997.0
20260505202504 12 306 0.0 0.0 0.00 0.89 0.89 84 997.0
20260505202004 12 306 0.0 0.0 0.00 0.89 0.89 83 997.0
20260505201504 12 306 0.0 0.0 0.00 0.89 0.89 83 997.0
20260505201004 12 306 0.0 0.0 0.00 0.89 0.89 82 1043.0
20260505200505 12 306 0.0 0.0 0.00 0.89 0.89 82 1043.0
20260505200005 12 306 0.0 0.0 0.00 0.89 0.89 81 1043.0
20260505195504 12 306 0.0 0.0 0.00 0.89 0.89 80 997.0
20260505195005 12 306 0.0 0.0 0.00 0.89 0.89 80 997.0
20260505194504 12 306 0.0 0.0 0.00 0.89 0.89 79 997.0
20260505194004 12 306 0.0 0.0 0.00 0.89 0.89 78 997.0
20260505193504 12 307 0.0 0.0 0.00 0.89 0.89 78 997.0
20260505193004 13 306 0.0 0.0 0.00 0.89 0.89 77 997.0
20260505192505 13 306 0.0 0.0 0.00 0.89 0.89 78 997.0
20260505192005 13 306 0.0 0.0 0.00 0.89 0.89 78 997.0
20260505191504 13 306 0.0 0.0 0.00 0.89 0.89 77 997.0
20260505191004 13 306 0.0 0.0 0.00 0.89 0.89 77 997.0
20260505190505 13 306 0.0 0.0 0.00 0.89 0.89 76 997.0
20260505190005 13 307 0.0 0.0 0.00 0.89 0.89 76 997.0
20260505185505 13 306 0.0 0.0 0.00 0.89 0.89 76 997.0
20260505185005 13 306 0.0 0.0 0.00 0.89 0.89 76 997.0
20260505184505 13 306 0.0 0.0 0.00 0.89 0.89 75 997.0
20260505184004 13 305 0.0 0.0 0.00 0.89 0.89 75 997.0
20260505183504 13 306 0.0 0.0 0.00 0.89 0.89 74 997.0
20260505183005 13 306 0.0 0.0 0.00 0.89 0.89 72 997.0
20260505182505 13 306 0.0 0.0 0.00 0.89 0.89 70 997.0
20260505181504 13 306 0.0 0.0 0.10 0.89 0.89 68 997.0
20260505181005 13 306 0.0 0.0 0.10 0.89 0.89 68 997.0
20260505180504 13 306 0.0 0.0 0.10 0.89 0.89 68 997.0
20260505180004 13 305 0.0 0.0 0.10 0.89 0.89 68 997.0
20260505175504 13 306 0.0 0.0 0.10 0.89 0.89 67 997.0
20260505175004 13 306 0.0 0.0 0.10 0.89 0.89 67 997.0
20260505174504 13 306 0.0 0.0 0.10 0.89 0.89 67 997.0
20260505174004 13 319 0.0 0.0 0.10 0.89 0.89 67 997.0
20260505173504 13 306 0.0 0.0 0.10 0.89 0.89 68 997.0
20260505173004 13 312 0.0 0.0 0.10 0.89 0.89 68 997.0
20260505172504 12 312 0.0 9.7 0.10 0.89 0.89 67 997.0
20260505172004 13 323 0.0 4.8 0.10 0.89 0.89 65 997.0
20260505171504 13 312 0.0 4.8 0.00 0.79 0.79 66 997.0
20260505171004 13 319 0.0 4.8 0.00 0.79 0.79 65 997.0
20260505170504 13 306 1.6 8.0 0.00 0.79 0.79 64 997.0
20260505170004 13 319 1.6 4.8 0.00 0.79 0.79 65 997.0
20260505165504 13 43 0.0 4.8 0.00 0.79 0.79 67 997.0
20260505165004 13 322 3.2 9.7 0.30 0.79 0.79 65 997.0